[[{"header":{"parameterUnit":"m.s-1","parameterCategory":1,"la1":30.2991,"la2":30.254,"lo1":-89.0895,"lo2":-89.0444,"dy":0.0017,"dx":0.0017,"nx":28,"ny":28,"refTime":"2025-06-01T09:00:00:Z","depth":0,"parameterNumber":2,"parameterNumberName":"U-component_of_WINDS"},"data":[0,0,0,0,0,0,0,0,0,0,0,0,0,0,0,0,0,0,0,0,0,0,0,0,0,0,0,0,0,0,0,0,0,0,0,0,0,0,0,0,0,0,0,0,0,0,0,0,0,0,0,0,0,0,0,0,0,0,-2.6862,-2.6862,0,-2.6893,-2.6893,-2.6894,-2.6833,-2.6831,-2.6829,-2.6827,-2.686,-2.6863,-2.6865,0,0,0,0,0,0,0,0,0,0,0,0,0,-2.6751,-2.6753,-2.6862,-2.6862,-2.6863,-2.6893,-2.6893,-2.6894,-2.6834,-2.6831,-2.6829,-2.6826,-2.6859,-2.6862,-2.6865,0,0,0,0,0,0,0,0,0,0,0,0,0,-2.6793,-2.6754,-2.6862,-2.6836,-2.6834,-2.6893,-2.6893,-2.6894,-2.6834,-2.6831,-2.6828,-2.6825,-2.6858,-2.6862,-2.6866,-2.6951,0,0,-2.6878,-2.688,0,0,0,0,0,0,0,0,-2.679,-2.6797,-2.6839,-2.6838,-2.6836,-2.6856,-2.6866,-2.6913,-2.6835,-2.6834,-2.6827,-2.6824,-2.6861,-2.6865,-2.6877,-2.6953,-2.6954,-2.6879,-2.6881,-2.6883,-2.6884,0,0,0,0,0,0,0,-2.6787,-2.6795,-2.6874,-2.684,-2.6838,-2.6824,-2.6826,-2.6875,-2.6864,-2.6834,-2.683,-2.6834,-2.686,-2.6873,-2.6878,-2.6955,-2.6879,-2.6882,-2.6885,-2.6886,-2.7104,-2.7107,0,0,0,0,0,0,-2.6788,-2.6793,-2.6873,-2.6875,-2.6805,-2.6828,-2.6831,-2.6853,-2.6863,-2.6862,-2.6837,-2.6831,-2.6868,-2.6873,-2.6878,-2.698,-2.6883,-2.6887,-2.6889,-2.71,-2.7104,-2.7108,0,0,0,0,0,0,-2.6786,-2.6795,-2.6872,-2.6833,-2.6842,-2.6833,-2.6858,-2.6855,-2.6869,-2.6865,-2.6863,-2.6853,-2.6866,-2.6873,-2.6934,-2.698,-2.6889,-2.6892,-2.7096,-2.7102,-2.7106,-2.7184,0,0,0,0,0,0,-2.6783,-2.6795,-2.6827,-2.6834,-2.6844,-2.6927,-2.6861,-2.6858,-2.6876,-2.6869,-2.688,-2.6879,-2.6864,-2.6928,-2.6938,-2.6984,-2.6896,-2.7092,-2.7099,-2.7105,-2.7177,-2.7191,-2.7203,0,0,0,0,0,-2.6779,-2.6847,-2.6829,-2.6839,-2.6884,-2.6929,-2.6935,-2.6916,-2.688,-2.6912,-2.691,-2.6879,-2.6974,-2.6935,-2.6946,-2.6994,-2.7089,-2.7097,-2.7104,-2.7171,-2.7188,-2.7202,0,0,0,0,0,0,-2.6846,-2.6848,-2.6827,-2.69,-2.6915,-2.6919,-2.6959,-2.6934,-2.696,-2.6953,-2.6928,-2.6931,-2.6998,-2.7002,-2.6959,-2.7078,-2.7025,-2.7035,-2.7073,-2.7089,-2.7101,-2.7099,-2.6899,0,0,0,0,0,-2.6869,-2.6906,-2.6905,-2.697,-2.6978,-2.6968,-2.6987,-2.6971,-2.6986,-2.6992,-2.6995,-2.701,-2.7044,-2.7066,-2.7097,-2.7177,-2.718,-2.7216,-2.7229,-2.7239,-2.7248,-2.7293,-2.7309,-2.7132,-2.7132,-2.7132,0,0,-2.6917,-2.6923,-2.6947,-2.6983,-2.6993,-2.7032,-2.6973,-2.7017,-2.7046,-2.6999,-2.7057,-2.706,-2.7076,-2.7147,-2.7179,-2.7153,-2.7298,-2.7249,-2.7257,-2.726,-2.7302,-2.7319,-2.7334,-2.7137,-2.7136,-2.7136,0,0,-2.7025,-2.7033,-2.7088,-2.7099,-2.7115,-2.7108,-2.7121,-2.7129,-2.7129,-2.7187,-2.7153,-2.7188,-2.7245,-2.7259,-2.7273,-2.7388,-2.736,-2.7399,-2.7466,-2.7509,-2.7523,-2.7535,-2.7578,-2.7593,-2.7408,-2.7408,-2.7408,0,-2.7083,-2.714,-2.7119,-2.7166,-2.7183,-2.7142,-2.7198,-2.721,-2.7236,-2.7249,-2.7219,-2.7292,-2.73,-2.7374,-2.7403,-2.7415,-2.7431,-2.7398,-2.7523,-2.7535,-2.7546,-2.7586,-2.7602,-2.7413,-2.7412,-2.7412,-2.7411,0,-2.7212,-2.7252,-2.7295,-2.7321,-2.7343,-2.7394,-2.7381,-2.7406,-2.7389,-2.7385,-2.7446,-2.7454,-2.7486,-2.7503,-2.7486,-2.7576,-2.7559,-2.7527,-2.7473,-2.7568,-2.7605,-2.762,-2.7419,-2.7418,-2.7416,-2.7415,0,0,-2.7362,-2.7376,-2.7392,-2.7404,-2.7419,-2.7451,-2.75,-2.7532,-2.7555,-2.7574,-2.7616,-2.7666,-2.7637,-2.7653,-2.7638,-2.7676,-2.7768,-2.7639,-2.7639,-2.7664,-2.787,-2.7895,-2.7913,-2.775,-2.7753,-2.7755,-2.7869,0,-2.747,-2.7556,-2.7539,-2.7623,-2.7661,-2.7623,-2.7667,-2.7681,-2.768,-2.7712,-2.771,-2.7747,-2.7704,-2.7714,-2.775,-2.775,-2.781,-2.7741,-2.779,-2.7792,-2.7788,-2.7932,-2.7958,-2.8065,-2.7883,-2.7885,-2.7887,0,-2.7607,-2.7632,-2.772,-2.7731,-2.7746,-2.7786,-2.7814,-2.7845,-2.7861,-2.7858,-2.7877,-2.7855,-2.7905,-2.7852,-2.7922,-2.7876,-2.7895,-2.7898,-2.7901,-2.7906,-2.7846,-2.7941,-2.8099,-2.8115,-2.791,-2.7908,-2.7906,0,-2.771,-2.7765,-2.7825,-2.7836,-2.785,-2.7879,-2.7886,-2.7899,-2.792,-2.7945,-2.7958,-2.7989,-2.8006,-2.8031,-2.8018,-2.798,-2.8091,-2.8036,-2.809,-2.8091,-2.8115,-2.8114,-2.8279,-2.8127,-2.8126,-2.8126,-2.8126,0,-2.7832,-2.7888,-2.7872,-2.7909,-2.7971,-2.7951,-2.8013,-2.8015,-2.8028,-2.8065,-2.8034,-2.8071,-2.8051,-2.8086,-2.8077,-2.8137,-2.8145,-2.8144,-2.8141,-2.8147,-2.8147,-2.816,-2.8152,-2.813,-2.8129,-2.8129,-2.8128,0,-2.7957,-2.7948,-2.8012,-2.8019,-2.8023,-2.8068,-2.8075,-2.811,-2.8107,-2.8155,-2.8165,-2.816,-2.8199,-2.8189,-2.8232,-2.8226,-2.8303,-2.829,-2.8297,-2.8294,-2.835,-2.8345,-2.8529,-2.8553,-2.8384,-2.8386,-2.8387,0,-2.8036,-2.8078,-2.8091,-2.8114,-2.8124,-2.8161,-2.8182,-2.8165,-2.8188,-2.8211,-2.8244,-2.8281,-2.831,-2.8376,-2.8376,-2.8409,-2.8397,-2.8459,-2.8402,-2.8408,-2.84,-2.8398,-2.8403,-2.8471,-2.8473,-2.8475,-2.8476,0,-2.8178,-2.8172,-2.8204,-2.8235,-2.8261,-2.8285,-2.8305,-2.8326,-2.831,-2.8338,-2.8379,-2.8401,-2.8446,-2.8484,-2.8515,-2.8522,-2.8498,-2.8494,-2.8509,-2.8516,-2.8519,-2.8519,-2.8329,-2.849,-2.8488,-2.8487,-2.8487,-2.8486,-2.8283,-2.832,-2.8335,-2.8372,-2.8385,-2.8406,-2.844,-2.8441,-2.8474,-2.8509,-2.8497,-2.8544,-2.856,-2.8599,-2.8611,-2.8648,-2.8625,-2.8645,-2.8651,-2.8656,-2.8664,-2.8513,-2.8653,-2.8653,-2.8653,-2.8652,-2.8652,0,-2.8425,-2.8433,-2.8467,-2.8497,-2.8527,-2.85,-2.8522,-2.8549,-2.859,-2.8608,-2.8637,-2.8684,-2.8721,-2.8725,-2.876,-2.8789,-2.8779,-2.8799,-2.8797,-2.88,-2.8682,-2.8667,-2.8807,-2.8807,-2.8807,-2.8807,-2.8807,-2.8807,-2.8502,-2.8562,-2.8558,-2.8626,-2.8634,-2.8679,-2.8694,-2.8713,-2.8727,-2.8782,-2.8812,-2.8814,-2.8827,-2.8863,-2.8896,-2.8896,-2.8911,-2.8936,-2.8932,-2.8823,-2.8808,-2.8793,-2.8778,-2.8939,-2.894,-2.9047,-2.9048,-2.9048]},{"header":{"parameterUnit":"m.s-1","parameterCategory":1,"la1":30.2991,"la2":30.254,"lo1":-89.0895,"lo2":-89.0444,"dy":0.0017,"dx":0.0017,"nx":28,"ny":28,"refTime":"2025-06-01T09:00:00:Z","depth":0,"parameterNumber":3,"parameterNumberName":"V-component_of_WINDS"},"data":[0,0,0,0,0,0,0,0,0,0,0,0,0,0,0,0,0,0,0,0,0,0,0,0,0,0,0,0,0,0,0,0,0,0,0,0,0,0,0,0,0,0,0,0,0,0,0,0,0,0,0,0,0,0,0,0,0,0,1.9228,1.9227,0,1.9169,1.9168,1.9167,1.9203,1.9205,1.9206,1.9208,1.9141,1.9138,1.9135,0,0,0,0,0,0,0,0,0,0,0,0,0,1.9366,1.9363,1.9228,1.9227,1.9226,1.9169,1.9168,1.9167,1.9203,1.9205,1.9207,1.9209,1.9143,1.9139,1.9135,0,0,0,0,0,0,0,0,0,0,0,0,0,1.9306,1.9362,1.9228,1.9237,1.9237,1.9169,1.9168,1.9167,1.9202,1.9205,1.9207,1.921,1.9144,1.9139,1.9134,1.9051,0,0,1.9118,1.9116,0,0,0,0,0,0,0,0,1.9309,1.9301,1.9237,1.9236,1.9237,1.9196,1.9192,1.9128,1.9202,1.9215,1.9208,1.9211,1.9157,1.9151,1.9134,1.9048,1.9045,1.9118,1.9115,1.9113,1.9111,0,0,0,0,0,0,0,1.9313,1.9303,1.9204,1.9235,1.9236,1.9243,1.9237,1.918,1.9172,1.9214,1.9217,1.921,1.9158,1.9139,1.9133,1.9044,1.9118,1.9114,1.9111,1.9109,1.8886,1.8883,0,0,0,0,0,0,1.9318,1.9307,1.9206,1.9202,1.928,1.9238,1.9232,1.9206,1.9173,1.9171,1.9208,1.9212,1.9146,1.9139,1.9131,1.9031,1.9113,1.9108,1.9105,1.8889,1.8885,1.8882,0,0,0,0,0,0,1.932,1.9308,1.9208,1.9255,1.9243,1.9233,1.9204,1.9204,1.9185,1.9168,1.9166,1.919,1.9148,1.9138,1.9071,1.9029,1.9106,1.9101,1.8892,1.8888,1.8884,1.883,0,0,0,0,0,0,1.9324,1.9309,1.9279,1.9254,1.924,1.9151,1.9201,1.9201,1.9177,1.9182,1.9151,1.9149,1.9149,1.9078,1.9066,1.9023,1.9097,1.8896,1.889,1.8885,1.8835,1.8824,1.8815,0,0,0,0,0,1.9329,1.9265,1.9277,1.9264,1.9202,1.9148,1.914,1.9144,1.9174,1.9142,1.9131,1.915,1.9036,1.9071,1.9057,1.9013,1.8898,1.8892,1.8885,1.884,1.8827,1.8815,0,0,0,0,0,0,1.9282,1.9262,1.9275,1.9201,1.9177,1.9155,1.9115,1.913,1.9095,1.91,1.9105,1.9097,1.9027,1.9014,1.9053,1.893,1.8971,1.8962,1.8942,1.8929,1.8919,1.8923,1.9093,0,0,0,0,0,1.9263,1.9223,1.9207,1.9143,1.913,1.9125,1.9101,1.9107,1.908,1.9069,1.9054,1.9026,1.8984,1.8956,1.8916,1.8834,1.8827,1.8797,1.8787,1.8778,1.8769,1.8724,1.871,1.8861,1.8861,1.8861,0,0,1.9223,1.9207,1.9181,1.9133,1.9115,1.9071,1.9115,1.9067,1.9034,1.9061,1.8998,1.8985,1.8954,1.8879,1.8845,1.8865,1.8727,1.877,1.8764,1.8759,1.8716,1.8702,1.8689,1.8856,1.8857,1.8858,0,0,1.9129,1.9113,1.9058,1.904,1.9012,1.9009,1.8996,1.8972,1.8965,1.8902,1.8921,1.8881,1.8809,1.8786,1.8765,1.8663,1.8678,1.8649,1.8595,1.8551,1.8539,1.8529,1.8491,1.8478,1.8641,1.8641,1.8641,0,1.9082,1.9019,1.9028,1.8978,1.8956,1.8981,1.8925,1.8905,1.8865,1.8848,1.8872,1.8782,1.8763,1.8683,1.8658,1.8641,1.8624,1.8652,1.8541,1.853,1.852,1.8484,1.847,1.8638,1.8638,1.8638,1.8639,0,1.8962,1.8918,1.8877,1.884,1.8813,1.876,1.8759,1.8731,1.8739,1.8733,1.8667,1.8646,1.8602,1.8584,1.859,1.8504,1.8518,1.8541,1.8582,1.8503,1.8469,1.8455,1.8633,1.8634,1.8635,1.8636,0,0,1.8834,1.8804,1.8789,1.8772,1.8744,1.8709,1.8657,1.8617,1.8591,1.8563,1.8518,1.8458,1.8479,1.8455,1.846,1.8421,1.834,1.8449,1.8448,1.8428,1.8243,1.8224,1.8208,1.8351,1.8349,1.8347,1.8245,0,1.8737,1.8648,1.8655,1.857,1.8529,1.8553,1.8507,1.8484,1.8477,1.844,1.8431,1.8388,1.842,1.8406,1.8369,1.8358,1.8303,1.8366,1.8307,1.8305,1.8313,1.8191,1.8171,1.8076,1.8232,1.823,1.8228,0,1.8611,1.8581,1.8492,1.8471,1.8454,1.8413,1.8376,1.8341,1.8315,1.8312,1.8286,1.8297,1.8243,1.8287,1.8212,1.8254,1.8231,1.8222,1.8218,1.8211,1.8261,1.8179,1.8046,1.8031,1.8208,1.8209,1.8211,0,1.8525,1.8462,1.8401,1.8386,1.836,1.833,1.8317,1.8294,1.827,1.8237,1.8221,1.8182,1.816,1.8129,1.8128,1.8161,1.8051,1.8095,1.8046,1.8046,1.802,1.8021,1.788,1.8008,1.8008,1.8008,1.8009,0,1.8414,1.8359,1.8362,1.8324,1.8263,1.827,1.8209,1.8199,1.8178,1.8138,1.8156,1.8117,1.8119,1.8079,1.8079,1.8015,1.8006,1.8001,1.8001,1.7998,1.7999,1.7982,1.7988,1.8004,1.8005,1.8006,1.8007,0,1.8307,1.8307,1.8242,1.8223,1.8217,1.8172,1.8155,1.8119,1.8114,1.8063,1.8051,1.8043,1.7997,1.7994,1.7941,1.794,1.7863,1.7871,1.7872,1.7873,1.7823,1.7828,1.7665,1.7643,1.7786,1.7785,1.7784,0,1.8236,1.8194,1.8171,1.8147,1.8133,1.8092,1.8068,1.8074,1.8047,1.8015,1.7982,1.7938,1.7904,1.7829,1.7817,1.7776,1.7783,1.7728,1.7776,1.7775,1.778,1.7782,1.7777,1.7718,1.7717,1.7715,1.7714,0,1.8109,1.8111,1.8076,1.8041,1.8012,1.7984,1.7958,1.7936,1.7939,1.7908,1.7863,1.7836,1.7783,1.7738,1.7699,1.7684,1.7698,1.77,1.7686,1.7682,1.7684,1.7681,1.7845,1.7703,1.7704,1.7705,1.7706,1.7706,1.8016,1.798,1.7959,1.7919,1.7901,1.7876,1.7841,1.7833,1.7796,1.7754,1.776,1.7709,1.7684,1.7633,1.7615,1.7574,1.7592,1.7572,1.7567,1.7561,1.7556,1.7692,1.7567,1.7567,1.7567,1.7567,1.7568,0,1.7889,1.7877,1.7841,1.7805,1.7773,1.7793,1.7766,1.7737,1.7693,1.7669,1.7636,1.7583,1.7541,1.7526,1.7485,1.7455,1.746,1.7443,1.7445,1.7441,1.7542,1.7558,1.7439,1.7439,1.744,1.744,1.744,1.744,1.7819,1.7759,1.7759,1.769,1.7678,1.763,1.7612,1.7589,1.757,1.7511,1.7477,1.7469,1.7449,1.7406,1.7367,1.7364,1.7347,1.7327,1.7326,1.7421,1.7434,1.7446,1.7461,1.7324,1.7324,1.7228,1.7227,1.7227]}]]